Location: Góry Miechowskie
(50.3599°N, 20.1803°E)
Time: 21:48:47
(UTC+00:00)

S-56A Canister/Altair - Pass Details

Date: 17 September 2024
Orbit: 636 x 2487 km, 38.9° (Epoch: 09 October)

Event Time Altitude Azimuth Distance (km) Brightness Sun altitude
Rises 22:29:56 0° 266° (W) 4,254 11.3 -37.9°
Enters shadow 22:30:29 - 264° (W) 4,141 11.2 -37.9°
Reaches altitude 10° 22:33:48 10° 247° (WSW) 3,609 - -37.9°
Maximum altitude 22:39:21 17° 211° (SSW) 3,492 - -37.8°
Drops below altitude 10° 22:46:04 10° 176° (S) 4,495 - -37.8°
Sets 22:51:54 0° 160° (SSE) 5,804 - -37.7°
